Weather History for KTVI - November, 2012

Change the Weather History Date:

Tuesday, November 6, 2012

  Actual Average (KVLD) Record (KVLD)
Temperature  
Mean Temperature 57 °F 62 °F  
Max Temperature 68 °F 75 °F 84 °F (2003)
Min Temperature 46 °F 50 °F 36 °F (2010)
Degree Days  
Heating Degree Days 8 4  
Month to date heating degree days 24  
Since 1 July heating degree days 67  
Growing Degree Days 7 (Base 50)    
Moisture  
Dew Point 50 °F    
Average Humidity 81    
Maximum Humidity 100    
Minimum Humidity 52    
Precipitation  
Precipitation 0.00 in 0.09 in 1.14 in (2002)
Month to date precipitation 0.56  
Year to date precipitation 45.43  
Sea Level Pressure  
Sea Level Pressure 29.92 in    
Wind  
Wind Speed 6 mph (WNW)    
Max Wind Speed 16 mph    
Max Gust Speed 17 mph    
Visibility 9 miles    
Events Rain , Thunderstorm    
T = Trace of Precipitation, MM = Missing Value Source: NWS Daily Summary

Daily Weather History Graph

Daily Weather History Graph

Search for Another Location

Airport or City:

Trip Planner

Search our weather history database for the weather conditions in past years. The results will help you decide how hot, cold, wet, or windy it might be!

Date:

Astronomy

Nov. 06, 2012 Rise Set
Actual Time 6:55 AM EST 5:42 PM EST
Civil Twilight 6:29 AM EST 6:08 PM EST
Nautical Twilight 6:01 AM EST 6:36 PM EST
Astronomical Twilight 5:32 AM EST 7:05 PM EST
Moon No Moon Rise 12:49 PM EST
Length of Visible Light 11h 38m
Length of Day
10h 47m
Waning Gibbous, 53% of the Moon is Illuminated
Nov 6
Waning Gibbous
Nov 6
Last Quarter
Nov 13
New
Nov 20
First Quarter
Nov 28
Full

Hourly Weather History & Observations

Time (EST) Temp. Windchill Dew Point Humidity Pressure Visibility Wind Dir Wind Speed Gust Speed Precip Events Conditions
12:15 AM 55.4 °F - 51.8 °F 88% 29.95 in 7.0 mi SE 8.1 mph - N/A Rain Light Rain
12:35 AM 53.6 °F - 51.8 °F 94% 29.94 in 10.0 mi SE 6.9 mph - N/A   Overcast
12:55 AM 53.6 °F - 51.8 °F 94% 29.94 in 10.0 mi SE 4.6 mph - N/A   Overcast
1:15 AM 53.6 °F - 51.8 °F 94% 29.92 in 7.0 mi South 6.9 mph - N/A Rain Light Rain
1:35 AM 53.6 °F - 51.8 °F 94% 29.91 in 10.0 mi SE 9.2 mph - N/A   Mostly Cloudy
1:55 AM 53.6 °F - 51.8 °F 94% 29.89 in 10.0 mi SSE 9.2 mph - N/A   Mostly Cloudy
2:15 AM 53.6 °F - 51.8 °F 94% 29.90 in 10.0 mi South 8.1 mph - N/A   Mostly Cloudy
2:35 AM 55.4 °F - 53.6 °F 94% 29.93 in 7.0 mi NNW 4.6 mph - N/A Rain Rain
2:55 AM 53.6 °F - 53.6 °F 100% 29.97 in 4.0 mi West 4.6 mph - N/A Rain , Thunderstorm Thunderstorms and Rain
3:15 AM 53.6 °F - 53.6 °F 100% 29.98 in 3.0 mi West 3.5 mph - N/A Rain , Thunderstorm Rain
3:35 AM 53.6 °F - 53.6 °F 100% 29.97 in 4.0 mi SSW 4.6 mph - N/A Rain , Thunderstorm Rain
3:55 AM 53.6 °F - 53.6 °F 100% 29.97 in 5.0 mi SSE 5.8 mph - N/A Rain Light Rain
4:15 AM 53.6 °F - 53.6 °F 100% 29.95 in 5.0 mi South 5.8 mph - N/A Rain Rain
4:35 AM 53.6 °F - 53.6 °F 100% 29.95 in 5.0 mi South 8.1 mph - N/A Rain Rain
4:55 AM 53.6 °F - 53.6 °F 100% 29.93 in 7.0 mi South 12.7 mph - N/A   Drizzle
5:15 AM 53.6 °F - 53.6 °F 100% 29.91 in 10.0 mi SSE 12.7 mph - N/A   Drizzle
5:35 AM 53.6 °F - 51.8 °F 94% 29.88 in 10.0 mi South 9.2 mph 16.1 mph N/A   Light Drizzle
5:55 AM 53.6 °F - 51.8 °F 94% 29.90 in 10.0 mi WSW 5.8 mph - N/A   Mostly Cloudy
6:15 AM 53.6 °F - 51.8 °F 94% 29.89 in 10.0 mi SSW 4.6 mph - N/A   Mostly Cloudy
6:35 AM 53.6 °F - 51.8 °F 94% 29.89 in 10.0 mi Calm Calm - N/A   Mostly Cloudy
6:55 AM 53.6 °F - 51.8 °F 94% 29.90 in 10.0 mi NNW 3.5 mph - N/A   Overcast
7:15 AM 53.6 °F - 51.8 °F 94% 29.91 in 10.0 mi NW 4.6 mph - N/A   Overcast
7:35 AM 53.6 °F - 51.8 °F 94% 29.92 in 10.0 mi WNW 3.5 mph - N/A   Mostly Cloudy
7:55 AM 53.6 °F - 51.8 °F 94% 29.92 in 10.0 mi NW 4.6 mph - N/A   Scattered Clouds
8:15 AM 53.6 °F - 51.8 °F 94% 29.92 in 10.0 mi NW 4.6 mph - N/A   Clear
8:35 AM 55.4 °F - 53.6 °F 94% 29.93 in 10.0 mi West 3.5 mph - N/A   Clear
8:55 AM 59.0 °F - 53.6 °F 82% 29.94 in 10.0 mi West 5.8 mph - N/A   Scattered Clouds
9:15 AM 59.0 °F - 53.6 °F 82% 29.93 in 10.0 mi WSW 5.8 mph - N/A   Mostly Cloudy
9:55 AM 60.8 °F - 53.6 °F 77% 29.94 in 10.0 mi West 3.5 mph - N/A   Scattered Clouds
10:15 AM 60.8 °F - 53.6 °F 77% 29.94 in 10.0 mi West 5.8 mph - N/A   Mostly Cloudy
10:35 AM 60.8 °F - 51.8 °F 72% 29.94 in 10.0 mi WSW 5.8 mph - N/A   Scattered Clouds
10:55 AM 62.6 °F - 53.6 °F 72% 29.93 in 10.0 mi WSW 5.8 mph - N/A   Scattered Clouds
11:15 AM 64.4 °F - 53.6 °F 68% 29.93 in 10.0 mi WSW 9.2 mph - N/A   Mostly Cloudy
11:35 AM 66.2 °F - 53.6 °F 64% 29.92 in 10.0 mi West 4.6 mph 16.1 mph N/A   Overcast
11:55 AM 64.4 °F - 51.8 °F 64% 29.91 in 10.0 mi WNW 5.8 mph - N/A   Overcast
12:15 PM 64.4 °F - 53.6 °F 68% 29.90 in 10.0 mi West 6.9 mph - N/A   Mostly Cloudy
12:35 PM 64.4 °F - 51.8 °F 64% 29.89 in 10.0 mi West 5.8 mph - N/A   Mostly Cloudy
12:55 PM 64.4 °F - 51.8 °F 64% 29.89 in 10.0 mi West 6.9 mph - N/A   Mostly Cloudy
1:15 PM 64.4 °F - 50.0 °F 59% 29.88 in 10.0 mi WNW 6.9 mph - N/A   Mostly Cloudy
1:35 PM 68.0 °F - 50.0 °F 52% 29.87 in 10.0 mi West 10.4 mph 16.1 mph N/A   Scattered Clouds
1:55 PM 64.4 °F - 50.0 °F 59% 29.87 in 10.0 mi NNW 9.2 mph - N/A   Mostly Cloudy
2:15 PM 66.2 °F - 50.0 °F 56% 29.86 in 10.0 mi NNW 16.1 mph - N/A   Mostly Cloudy
2:35 PM 64.4 °F - 51.8 °F 64% 29.87 in 10.0 mi NW 10.4 mph 16.1 mph N/A   Scattered Clouds
2:55 PM 64.4 °F - 50.0 °F 59% 29.86 in 10.0 mi NW 10.4 mph - N/A   Clear
3:15 PM 64.4 °F - 50.0 °F 59% 29.86 in 10.0 mi NW 13.8 mph 17.3 mph N/A   Scattered Clouds
3:35 PM 62.6 °F - 48.2 °F 59% 29.86 in 10.0 mi NW 9.2 mph - N/A   Scattered Clouds
3:55 PM 62.6 °F - 48.2 °F 59% 29.87 in 10.0 mi NW 8.1 mph - N/A   Clear
4:15 PM 62.6 °F - 48.2 °F 59% 29.87 in 10.0 mi NNW 12.7 mph 17.3 mph N/A   Scattered Clouds
4:35 PM 62.6 °F - 48.2 °F 59% 29.88 in 10.0 mi NW 9.2 mph - N/A   Clear
4:55 PM 60.8 °F - 46.4 °F 59% 29.89 in 10.0 mi NNW 10.4 mph - N/A   Clear
5:15 PM 59.0 °F - 46.4 °F 63% 29.90 in 10.0 mi NW 9.2 mph - N/A   Clear
5:35 PM 57.2 °F - 46.4 °F 67% 29.91 in 10.0 mi NW 9.2 mph 17.3 mph N/A   Clear
5:55 PM 55.4 °F - 46.4 °F 72% 29.92 in 10.0 mi NW 4.6 mph - N/A   Clear
6:15 PM 53.6 °F - 44.6 °F 72% 29.92 in 10.0 mi WNW 3.5 mph - N/A   Clear
6:35 PM 53.6 °F - 44.6 °F 72% 29.93 in 10.0 mi Calm Calm - N/A   Clear
6:55 PM 51.8 °F - 44.6 °F 76% 29.94 in 10.0 mi Calm Calm - N/A   Clear
7:15 PM 51.8 °F - 44.6 °F 76% 29.94 in 10.0 mi Calm Calm - N/A   Clear
7:35 PM 50.0 °F - 44.6 °F 82% 29.93 in 10.0 mi Calm Calm - N/A   Clear
7:55 PM 50.0 °F - 44.6 °F 82% 29.93 in 10.0 mi Calm Calm - N/A   Clear
8:15 PM 48.2 °F - 44.6 °F 87% 29.94 in 10.0 mi NW 3.5 mph - N/A   Clear
8:35 PM 48.2 °F - 44.6 °F 87% 29.95 in 10.0 mi NNW 3.5 mph - N/A   Clear
8:55 PM 50.0 °F - 44.6 °F 82% 29.95 in 10.0 mi NNW 5.8 mph - N/A   Clear
9:15 PM 48.2 °F - 44.6 °F 87% 29.95 in 10.0 mi NNW 4.6 mph - N/A   Clear
9:55 PM 46.4 °F 45.2 °F 44.6 °F 93% 29.95 in 10.0 mi NNW 3.5 mph - N/A   Clear
10:15 PM 46.4 °F 45.2 °F 46.4 °F 100% 29.96 in 10.0 mi NNW 3.5 mph - N/A   Mostly Cloudy
10:35 PM 48.2 °F - 46.4 °F 93% 29.96 in 10.0 mi Calm Calm - N/A   Overcast
10:55 PM 50.0 °F - 46.4 °F 87% 29.97 in 10.0 mi NNW 3.5 mph - N/A   Overcast
11:15 PM 50.0 °F - 46.4 °F 87% 29.96 in 10.0 mi North 3.5 mph - N/A   Overcast
11:35 PM 50.0 °F - 46.4 °F 87% 29.94 in 10.0 mi Calm Calm - N/A   Overcast
11:55 PM 50.0 °F - 48.2 °F 94% 29.94 in 10.0 mi Calm Calm - N/A   Overcast